| time (UTC) | temp F | wind direction | speed MPH | gust MPH | rain 1hr in | rain 24hr in | rain mn in | humidity % | barometer mb |
| 20260506033500 | 45 | 59 | 0.0 | 0.0 | 0.00 | 0.42 | 0.42 | 99 | 1028.2 |
| 20260506032957 | 45 | 46 | 0.0 | 0.0 | 0.00 | 0.42 | 0.42 | 99 | 1028.2 |
| 20260506032455 | 45 | 56 | 0.0 | 0.0 | 0.00 | 0.42 | 0.42 | 99 | 1028.1 |
| 20260506031951 | 46 | 66 | 0.0 | 0.0 | 0.00 | 0.42 | 0.42 | 99 | 1028.0 |
| 20260506031448 | 46 | 68 | 0.0 | 0.0 | 0.00 | 0.42 | 0.42 | 99 | 1028.1 |
| 20260506030946 | 46 | 71 | 0.0 | 0.0 | 0.00 | 0.42 | 0.42 | 99 | 1028.5 |
| 20260506030444 | 46 | 51 | 1.0 | 1.0 | 0.00 | 0.42 | 0.42 | 99 | 1028.2 |
| 20260506025940 | 46 | 61 | 0.0 | 0.0 | 0.00 | 0.42 | 0.42 | 99 | 1028.1 |
| 20260506025437 | 46 | 56 | 0.0 | 0.0 | 0.00 | 0.42 | 0.42 | 99 | 1027.8 |
| 20260506024934 | 46 | 48 | 0.0 | 1.0 | 0.00 | 0.42 | 0.42 | 99 | 1028.3 |
| 20260506024431 | 46 | 54 | 0.0 | 0.0 | 0.05 | 0.42 | 0.42 | 99 | 1028.3 |
| 20260506023926 | 46 | 66 | 0.0 | 0.0 | 0.19 | 0.42 | 0.42 | 99 | 1028.3 |
| 20260506023424 | 46 | 62 | 0.0 | 0.0 | 0.24 | 0.42 | 0.42 | 99 | 1028.4 |
| 20260506022920 | 47 | 79 | 0.0 | 0.0 | 0.17 | 0.39 | 0.39 | 99 | 1028.6 |
| 20260506022418 | 47 | 57 | 0.0 | 0.0 | 0.19 | 0.38 | 0.38 | 99 | 1028.7 |
| 20260506021916 | 47 | 65 | 0.0 | 0.0 | 0.19 | 0.36 | 0.36 | 99 | 1028.6 |
| 20260506021413 | 47 | 65 | 0.0 | 0.0 | 0.24 | 0.35 | 0.35 | 99 | 1028.4 |
| 20260506020910 | 47 | 65 | 0.0 | 0.0 | 0.17 | 0.33 | 0.33 | 99 | 1028.6 |
| 20260506020408 | 47 | 64 | 0.0 | 0.0 | 0.31 | 0.32 | 0.32 | 99 | 1028.5 |
| 20260506015905 | 47 | 58 | 0.0 | 0.0 | 0.38 | 0.30 | 0.30 | 99 | 1028.8 |
| 20260506015402 | 47 | 67 | 0.0 | 1.0 | 0.35 | 0.27 | 0.27 | 99 | 1028.6 |
| 20260506014859 | 48 | 64 | 0.0 | 0.0 | 0.24 | 0.25 | 0.25 | 99 | 1028.6 |
| 20260506014356 | 48 | 64 | 0.0 | 0.0 | 0.00 | 0.21 | 0.21 | 99 | 1028.5 |
| 20260506013852 | 48 | 66 | 0.0 | 0.0 | 0.07 | 0.21 | 0.21 | 99 | 1028.0 |
| 20260506013350 | 49 | 60 | 0.0 | 0.0 | 0.07 | 0.21 | 0.21 | 99 | 1028.5 |
| 20260506012846 | 49 | 86 | 0.0 | 0.0 | 0.00 | 0.20 | 0.20 | 99 | 1028.5 |
| 20260506012343 | 49 | 64 | 0.0 | 0.0 | 0.05 | 0.20 | 0.20 | 99 | 1028.3 |
| 20260506011840 | 49 | 78 | 0.0 | 0.0 | 0.12 | 0.20 | 0.20 | 99 | 1028.3 |
| 20260506011337 | 50 | 79 | 0.0 | 0.0 | 0.12 | 0.20 | 0.20 | 99 | 1028.0 |
| 20260506010834 | 49 | 95 | 0.0 | 0.0 | 0.00 | 0.18 | 0.18 | 99 | 1028.3 |
| 20260506010332 | 50 | 88 | 0.0 | 0.0 | 0.05 | 0.18 | 0.18 | 99 | 1028.3 |
| 20260506005829 | 50 | 74 | 0.0 | 0.0 | 0.05 | 0.18 | 0.18 | 99 | 1028.2 |
| 20260506005326 | 50 | 69 | 0.0 | 0.0 | 0.00 | 0.17 | 0.17 | 99 | 1028.0 |
| 20260506004822 | 50 | 69 | 0.0 | 0.0 | 0.00 | 0.17 | 0.17 | 99 | 1027.8 |
| 20260506004320 | 50 | 36 | 0.0 | 0.0 | 0.07 | 0.17 | 0.17 | 99 | 1027.6 |
| 20260506003815 | 50 | 3 | 0.0 | 0.0 | 0.07 | 0.17 | 0.17 | 98 | 1027.8 |
| 20260506003312 | 50 | 74 | 0.0 | 0.0 | 0.12 | 0.16 | 0.16 | 98 | 1028.1 |
| 20260506002808 | 50 | 45 | 0.0 | 1.0 | 0.12 | 0.16 | 0.16 | 98 | 1028.0 |
| 20260506002306 | 51 | 345 | 1.0 | 2.0 | 0.00 | 0.14 | 0.14 | 98 | 1028.1 |
| 20260506001801 | 51 | 40 | 0.0 | 0.0 | 0.07 | 0.14 | 0.14 | 98 | 1027.7 |
| 20260506001258 | 51 | 36 | 1.0 | 1.0 | 0.07 | 0.14 | 0.14 | 97 | 1027.5 |
| 20260506000755 | 51 | 57 | 0.0 | 0.0 | 0.00 | 0.13 | 0.13 | 97 | 1027.3 |
| 20260506000254 | 51 | 24 | 0.0 | 1.0 | 0.00 | 0.13 | 0.13 | 97 | 1027.2 |
| 20260505235749 | 51 | 47 | 0.0 | 1.0 | 0.00 | 0.13 | 0.13 | 97 | 1027.3 |
| 20260505235247 | 52 | 34 | 0.0 | 1.0 | 0.00 | 0.13 | 0.13 | 96 | 1027.1 |
| 20260505234743 | 52 | 44 | 0.0 | 0.0 | 0.00 | 0.13 | 0.13 | 96 | 1026.9 |
| 20260505234241 | 52 | 36 | 3.0 | 5.0 | 0.00 | 0.13 | 0.13 | 95 | 1027.1 |
| 20260505233737 | 52 | 27 | 3.0 | 3.0 | 0.00 | 0.13 | 0.13 | 95 | 1027.4 |
| 20260505233236 | 53 | 40 | 2.0 | 2.0 | 0.05 | 0.13 | 0.13 | 94 | 1027.2 |
| 20260505232732 | 53 | 62 | 0.0 | 0.0 | 0.05 | 0.13 | 0.13 | 93 | 1027.4 |
| 20260505232230 | 54 | 12 | 1.0 | 1.0 | 0.12 | 0.12 | 0.12 | 92 | 1027.4 |
| 20260505231726 | 55 | 79 | 1.0 | 2.0 | 0.12 | 0.12 | 0.12 | 91 | 1027.3 |
| 20260505231226 | 56 | 359 | 6.0 | 7.0 | 0.05 | 0.11 | 0.11 | 88 | 1027.1 |
| 20260505230723 | 57 | 267 | 3.0 | 5.0 | 0.00 | 0.10 | 0.10 | 84 | 1026.9 |
| 20260505230219 | 57 | 290 | 4.0 | 5.0 | 0.00 | 0.10 | 0.10 | 82 | 1026.6 |
| 20260505225716 | 58 | 18 | 1.0 | 2.0 | 0.00 | 0.10 | 0.10 | 81 | 1026.7 |
| 20260505225213 | 58 | 1 | 3.0 | 5.0 | 0.00 | 0.10 | 0.10 | 80 | 1026.7 |
| 20260505224708 | 59 | 4 | 3.0 | 5.0 | 0.00 | 0.10 | 0.10 | 79 | 1026.6 |
| 20260505224206 | 59 | 12 | 4.0 | 6.0 | 0.00 | 0.10 | 0.10 | 79 | 1026.4 |
| 20260505223704 | 59 | 353 | 3.0 | 5.0 | 0.00 | 0.10 | 0.10 | 78 | 1026.3 |
| 20260505223159 | 60 | 22 | 5.0 | 7.0 | 0.00 | 0.10 | 0.10 | 77 | 1026.4 |
| 20260505222656 | 61 | 42 | 4.0 | 7.0 | 0.00 | 0.10 | 0.10 | 76 | 1026.0 |
| 20260505222152 | 61 | 327 | 3.0 | 5.0 | 0.00 | 0.10 | 0.10 | 76 | 1026.2 |
| 20260505221649 | 62 | 343 | 5.0 | 6.0 | 0.00 | 0.10 | 0.10 | 75 | 1026.0 |
| 20260505221146 | 62 | 33 | 2.0 | 2.0 | 0.00 | 0.10 | 0.10 | 74 | 1025.6 |
| 20260505220643 | 63 | 21 | 3.0 | 3.0 | 0.00 | 0.10 | 0.10 | 74 | 1025.7 |
| 20260505220141 | 63 | 355 | 3.0 | 3.0 | 0.00 | 0.10 | 0.10 | 73 | 1025.6 |
| 20260505215638 | 63 | 312 | 2.0 | 2.0 | 0.00 | 0.10 | 0.10 | 73 | 1025.4 |
| 20260505215136 | 64 | 17 | 3.0 | 3.0 | 0.00 | 0.10 | 0.10 | 72 | 1025.2 |
| 20260505214634 | 64 | 51 | 1.0 | 2.0 | 0.00 | 0.10 | 0.10 | 71 | 1025.1 |
| 20260505214131 | 65 | 337 | 3.0 | 5.0 | 0.00 | 0.10 | 0.10 | 71 | 1025.2 |
| 20260505213629 | 65 | 321 | 3.0 | 3.0 | 0.00 | 0.10 | 0.10 | 70 | 1025.0 |
| 20260505213125 | 65 | 321 | 2.0 | 2.0 | 0.00 | 0.10 | 0.10 | 69 | 1024.8 |
| 20260505212620 | 66 | 301 | 5.0 | 7.0 | 0.00 | 0.10 | 0.10 | 69 | 1024.8 |
| 20260505212119 | 66 | 302 | 5.0 | 5.0 | 0.00 | 0.10 | 0.10 | 68 | 1024.9 |
| 20260505211615 | 67 | 17 | 2.0 | 2.0 | 0.00 | 0.10 | 0.10 | 67 | 1024.8 |
| 20260505211113 | 66 | 307 | 2.0 | 2.0 | 0.00 | 0.10 | 0.10 | 68 | 1024.8 |
| 20260505210609 | 67 | 277 | 6.0 | 8.0 | 0.00 | 0.10 | 0.10 | 66 | 1024.9 |
| 20260505210106 | 67 | 305 | 5.0 | 7.0 | 0.00 | 0.10 | 0.10 | 68 | 1024.7 |
| 20260505205604 | 67 | 298 | 4.0 | 6.0 | 0.00 | 0.10 | 0.10 | 68 | 1024.6 |
| 20260505205101 | 67 | 281 | 3.0 | 5.0 | 0.00 | 0.10 | 0.10 | 71 | 1024.1 |
| 20260505204558 | 66 | 185 | 2.0 | 2.0 | 0.00 | 0.10 | 0.10 | 74 | 1024.4 |
| 20260505204056 | 66 | 101 | 1.0 | 1.0 | 0.00 | 0.10 | 0.10 | 75 | 1024.3 |
| 20260505203552 | 65 | 185 | 2.0 | 3.0 | 0.00 | 0.10 | 0.10 | 75 | 1024.4 |
| 20260505203049 | 66 | 138 | 2.0 | 2.0 | 0.00 | 0.10 | 0.10 | 75 | 1024.7 |
| 20260505202545 | 65 | 244 | 1.0 | 2.0 | 0.00 | 0.10 | 0.10 | 74 | 1024.5 |
| 20260505202041 | 66 | 152 | 2.0 | 2.0 | 0.00 | 0.10 | 0.10 | 75 | 1024.8 |
| 20260505201538 | 66 | 277 | 2.0 | 3.0 | 0.00 | 0.10 | 0.10 | 74 | 1025.1 |
| 20260505201036 | 65 | 221 | 4.0 | 7.0 | 0.00 | 0.10 | 0.10 | 74 | 1025.0 |
| 20260505200533 | 64 | 279 | 4.0 | 6.0 | 0.00 | 0.10 | 0.10 | 75 | 1024.7 |
| 20260505200030 | 64 | 298 | 6.0 | 7.0 | 0.00 | 0.10 | 0.10 | 74 | 1025.0 |
| 20260505195526 | 63 | 255 | 5.0 | 6.0 | 0.00 | 0.10 | 0.10 | 77 | 1025.1 |
| 20260505195024 | 62 | 266 | 5.0 | 7.0 | 0.07 | 0.10 | 0.10 | 80 | 1025.0 |
| 20260505194521 | 62 | 286 | 5.0 | 6.0 | 0.07 | 0.10 | 0.10 | 82 | 1025.1 |
| 20260505194016 | 62 | 299 | 7.0 | 8.0 | 0.05 | 0.09 | 0.09 | 79 | 1025.2 |
| 20260505193514 | 63 | 291 | 6.0 | 7.0 | 0.05 | 0.09 | 0.09 | 74 | 1024.8 |
| 20260505193011 | 66 | 329 | 5.0 | 6.0 | 0.00 | 0.08 | 0.08 | 67 | 1025.0 |
| 20260505192509 | 67 | 287 | 5.0 | 7.0 | 0.00 | 0.08 | 0.08 | 63 | 1024.7 |
| 20260505192007 | 68 | 279 | 9.0 | 10.0 | 0.00 | 0.08 | 0.08 | 62 | 1024.6 |
| 20260505191505 | 68 | 356 | 1.0 | 2.0 | 0.00 | 0.08 | 0.08 | 63 | 1024.5 |
| 20260505191002 | 69 | 250 | 3.0 | 3.0 | 0.00 | 0.08 | 0.08 | 62 | 1024.4 |
| 20260505190457 | 70 | 286 | 4.0 | 6.0 | 0.00 | 0.08 | 0.08 | 60 | 1024.3 |
| 20260505185952 | 69 | 297 | 4.0 | 5.0 | 0.00 | 0.08 | 0.08 | 60 | 1024.1 |
| 20260505185450 | 69 | 271 | 11.0 | 11.0 | 0.00 | 0.08 | 0.08 | 59 | 1024.1 |
| 20260505184946 | 69 | 278 | 5.0 | 6.0 | 0.00 | 0.08 | 0.08 | 60 | 1024.1 |
| 20260505184443 | 69 | 247 | 6.0 | 9.0 | 0.00 | 0.08 | 0.08 | 62 | 1024.0 |
| 20260505183939 | 69 | 189 | 3.0 | 5.0 | 0.00 | 0.08 | 0.08 | 63 | 1024.3 |
| 20260505183437 | 69 | 286 | 4.0 | 5.0 | 0.00 | 0.08 | 0.08 | 62 | 1024.1 |
| 20260505182933 | 69 | 302 | 7.0 | 9.0 | 0.00 | 0.08 | 0.08 | 62 | 1024.6 |
| 20260505182430 | 70 | 247 | 3.0 | 5.0 | 0.00 | 0.08 | 0.08 | 63 | 1024.4 |
| 20260505181926 | 69 | 192 | 6.0 | 9.0 | 0.00 | 0.08 | 0.08 | 63 | 1024.3 |
| 20260505181424 | 69 | 138 | 6.0 | 7.0 | 0.00 | 0.08 | 0.08 | 63 | 1024.4 |
| 20260505180921 | 68 | 264 | 11.0 | 14.0 | 0.00 | 0.08 | 0.08 | 68 | 1024.5 |
| 20260505180417 | 68 | 294 | 7.0 | 8.0 | 0.00 | 0.08 | 0.08 | 68 | 1024.7 |
| 20260505175914 | 67 | 242 | 5.0 | 6.0 | 0.00 | 0.08 | 0.08 | 72 | 1024.4 |
| 20260505175410 | 66 | 227 | 3.0 | 3.0 | 0.00 | 0.08 | 0.08 | 75 | 1024.3 |
| 20260505174906 | 65 | 273 | 8.0 | 9.0 | 0.00 | 0.08 | 0.08 | 74 | 1023.9 |
| 20260505174404 | 65 | 202 | 3.0 | 5.0 | 0.00 | 0.08 | 0.08 | 78 | 1024.1 |
| 20260505173900 | 63 | 208 | 4.0 | 6.0 | 0.00 | 0.08 | 0.08 | 81 | 1024.6 |
| 20260505173356 | 62 | 248 | 6.0 | 8.0 | 0.00 | 0.08 | 0.08 | 83 | 1024.8 |
| 20260505172854 | 61 | 223 | 3.0 | 5.0 | 0.00 | 0.08 | 0.08 | 88 | 1024.6 |
| 20260505172351 | 60 | 256 | 4.0 | 6.0 | 0.00 | 0.08 | 0.08 | 87 | 1024.4 |
| 20260505171851 | 59 | 278 | 5.0 | 9.0 | 0.00 | 0.08 | 0.08 | 88 | 1025.0 |
| 20260505171348 | 60 | 289 | 5.0 | 7.0 | 0.00 | 0.08 | 0.08 | 88 | 1025.0 |
| 20260505170844 | 60 | 277 | 4.0 | 6.0 | 0.07 | 0.08 | 0.08 | 85 | 1024.9 |
| 20260505170342 | 60 | 235 | 7.0 | 9.0 | 0.12 | 0.08 | 0.08 | 84 | 1025.0 |
| 20260505165837 | 61 | 249 | 5.0 | 9.0 | 0.05 | 0.07 | 0.07 | 80 | 1024.9 |
| 20260505165332 | 65 | 296 | 13.0 | 17.0 | 0.00 | 0.06 | 0.06 | 71 | 1024.6 |
| 20260505164829 | 67 | 268 | 4.0 | 5.0 | 0.00 | 0.06 | 0.06 | 62 | 1024.5 |
| 20260505164325 | 67 | 261 | 7.0 | 9.0 | 0.00 | 0.06 | 0.06 | 60 | 1024.5 |
| 20260505163823 | 67 | 198 | 4.0 | 5.0 | 0.00 | 0.06 | 0.06 | 61 | 1024.3 |
| 20260505163322 | 67 | 251 | 5.0 | 6.0 | 0.00 | 0.06 | 0.06 | 61 | 1024.3 |
| 20260505162820 | 67 | 272 | 6.0 | 8.0 | 0.00 | 0.06 | 0.06 | 60 | 1024.3 |
| 20260505162316 | 67 | 279 | 4.0 | 6.0 | 0.00 | 0.06 | 0.06 | 60 | 1024.1 |
| 20260505161813 | 67 | 280 | 7.0 | 11.0 | 0.00 | 0.06 | 0.06 | 59 | 1024.4 |
| 20260505161310 | 68 | 253 | 9.0 | 15.0 | 0.00 | 0.06 | 0.06 | 59 | 1024.3 |
| 20260505160808 | 68 | 229 | 7.0 | 7.0 | 0.00 | 0.06 | 0.06 | 59 | 1023.9 |
| 20260505160305 | 68 | 194 | 7.0 | 10.0 | 0.00 | 0.06 | 0.06 | 58 | 1023.8 |
| 20260505153244 | 69 | 280 | 8.0 | 9.0 | 0.00 | 0.06 | 0.06 | 59 | 1023.4 |
| 20260505152741 | 69 | 216 | 5.0 | 7.0 | 0.00 | 0.06 | 0.06 | 61 | 1023.6 |
| 20260505152237 | 69 | 202 | 7.0 | 8.0 | 0.00 | 0.06 | 0.06 | 60 | 1023.5 |
| 20260505151732 | 68 | 174 | 5.0 | 5.0 | 0.00 | 0.06 | 0.06 | 62 | 1023.5 |
| 20260505151230 | 68 | 233 | 7.0 | 9.0 | 0.00 | 0.06 | 0.06 | 62 | 1023.8 |
| 20260505150726 | 68 | 251 | 7.0 | 7.0 | 0.00 | 0.06 | 0.06 | 61 | 1023.6 |
| 20260505150223 | 68 | 228 | 6.0 | 10.0 | 0.00 | 0.06 | 0.06 | 62 | 1023.7 |
| 20260505140651 | 66 | 245 | 5.0 | 7.0 | 0.00 | 0.06 | 0.06 | 65 | 1023.4 |
| 20260505140148 | 66 | 255 | 5.0 | 6.0 | 0.00 | 0.06 | 0.06 | 66 | 1023.3 |
| 20260505130112 | 65 | 258 | 5.0 | 7.0 | 0.00 | 0.06 | 0.06 | 69 | 1023.4 |
| 20260505124601 | 64 | 227 | 3.0 | 5.0 | 0.00 | 0.06 | 0.06 | 68 | 1023.5 |
| 20260505124057 | 64 | 208 | 5.0 | 7.0 | 0.00 | 0.06 | 0.06 | 70 | 1023.5 |
| 20260505123554 | 64 | 225 | 7.0 | 9.0 | 0.00 | 0.06 | 0.06 | 69 | 1023.6 |
| 20260505123050 | 64 | 156 | 2.0 | 3.0 | 0.00 | 0.06 | 0.06 | 70 | 1023.2 |
| 20260505122547 | 64 | 204 | 4.0 | 6.0 | 0.00 | 0.06 | 0.06 | 69 | 1023.4 |
| 20260505122044 | 64 | 252 | 7.0 | 10.0 | 0.00 | 0.06 | 0.06 | 70 | 1023.3 |
| 20260505121541 | 63 | 285 | 5.0 | 7.0 | 0.00 | 0.06 | 0.06 | 72 | 1023.3 |
| 20260505121038 | 63 | 306 | 5.0 | 6.0 | 0.00 | 0.06 | 0.06 | 71 | 1023.3 |
| 20260505120534 | 63 | 198 | 4.0 | 7.0 | 0.00 | 0.06 | 0.06 | 71 | 1023.3 |
| 20260505120030 | 63 | 274 | 6.0 | 8.0 | 0.00 | 0.06 | 0.06 | 71 | 1023.4 |
| 20260505115524 | 62 | 240 | 4.0 | 5.0 | 0.00 | 0.06 | 0.06 | 73 | 1023.5 |
| 20260505115022 | 61 | 236 | 5.0 | 6.0 | 0.00 | 0.06 | 0.06 | 73 | 1023.5 |
| 20260505114519 | 61 | 266 | 7.0 | 11.0 | 0.00 | 0.06 | 0.06 | 74 | 1023.4 |
| 20260505114015 | 61 | 206 | 4.0 | 5.0 | 0.00 | 0.06 | 0.06 | 75 | 1023.5 |
| 20260505113512 | 61 | 250 | 3.0 | 5.0 | 0.00 | 0.06 | 0.06 | 75 | 1023.5 |
| 20260505113008 | 60 | 271 | 5.0 | 7.0 | 0.00 | 0.06 | 0.06 | 76 | 1023.4 |
| 20260505112504 | 60 | 248 | 3.0 | 3.0 | 0.00 | 0.06 | 0.06 | 76 | 1023.3 |
| 20260505112002 | 60 | 255 | 6.0 | 11.0 | 0.00 | 0.06 | 0.06 | 76 | 1023.4 |
| 20260505111456 | 60 | 230 | 4.0 | 6.0 | 0.00 | 0.06 | 0.06 | 77 | 1023.4 |
| 20260505110953 | 60 | 239 | 3.0 | 5.0 | 0.00 | 0.06 | 0.06 | 77 | 1023.4 |
| 20260505110449 | 59 | 244 | 3.0 | 3.0 | 0.00 | 0.06 | 0.06 | 77 | 1023.4 |
| 20260505101920 | 59 | 250 | 3.0 | 6.0 | 0.00 | 0.06 | 0.06 | 78 | 1023.0 |
| 20260505101415 | 59 | 244 | 3.0 | 3.0 | 0.00 | 0.06 | 0.06 | 78 | 1023.2 |
| 20260505100911 | 59 | 202 | 4.0 | 6.0 | 0.00 | 0.06 | 0.06 | 78 | 1022.9 |
| 20260505100408 | 59 | 245 | 4.0 | 6.0 | 0.00 | 0.06 | 0.06 | 79 | 1022.8 |
| 20260505095903 | 59 | 221 | 3.0 | 3.0 | 0.00 | 0.06 | 0.06 | 79 | 1022.7 |
| 20260505095401 | 59 | 228 | 3.0 | 3.0 | 0.00 | 0.06 | 0.06 | 78 | 1022.7 |
| 20260505094857 | 58 | 237 | 3.0 | 3.0 | 0.00 | 0.06 | 0.06 | 79 | 1022.8 |
| 20260505094354 | 58 | 190 | 3.0 | 3.0 | 0.00 | 0.06 | 0.06 | 80 | 1022.9 |
| 20260505093849 | 58 | 175 | 3.0 | 3.0 | 0.00 | 0.06 | 0.06 | 79 | 1022.7 |
| 20260505093347 | 59 | 231 | 2.0 | 2.0 | 0.00 | 0.06 | 0.06 | 78 | 1022.8 |
| 20260505092844 | 59 | 247 | 4.0 | 6.0 | 0.00 | 0.06 | 0.06 | 78 | 1023.0 |
| 20260505092342 | 59 | 230 | 4.0 | 5.0 | 0.00 | 0.06 | 0.06 | 78 | 1022.7 |
| 20260505091839 | 59 | 201 | 3.0 | 3.0 | 0.00 | 0.06 | 0.06 | 77 | 1022.7 |
| 20260505091337 | 60 | 232 | 2.0 | 2.0 | 0.00 | 0.06 | 0.06 | 76 | 1022.9 |
| 20260505090835 | 59 | 233 | 3.0 | 3.0 | 0.00 | 0.06 | 0.06 | 77 | 1022.9 |
| 20260505090333 | 59 | 253 | 3.0 | 3.0 | 0.00 | 0.06 | 0.06 | 81 | 1022.7 |
| 20260505085830 | 59 | 249 | 3.0 | 5.0 | 0.00 | 0.06 | 0.06 | 80 | 1023.3 |
| 20260505085328 | 59 | 220 | 4.0 | 5.0 | 0.00 | 0.06 | 0.06 | 77 | 1023.0 |
| 20260505084826 | 59 | 256 | 5.0 | 6.0 | 0.00 | 0.06 | 0.06 | 77 | 1023.1 |
| 20260505084324 | 59 | 193 | 4.0 | 6.0 | 0.00 | 0.06 | 0.06 | 77 | 1023.2 |
| 20260505083820 | 59 | 246 | 3.0 | 3.0 | 0.00 | 0.06 | 0.06 | 78 | 1023.3 |
| 20260505083318 | 59 | 201 | 3.0 | 3.0 | 0.00 | 0.06 | 0.06 | 78 | 1023.2 |
| 20260505082814 | 59 | 219 | 4.0 | 6.0 | 0.00 | 0.06 | 0.06 | 78 | 1023.2 |
| 20260505082311 | 59 | 196 | 2.0 | 3.0 | 0.00 | 0.06 | 0.06 | 78 | 1023.0 |
| 20260505081807 | 59 | 286 | 3.0 | 3.0 | 0.00 | 0.06 | 0.06 | 78 | 1022.8 |
| 20260505081304 | 59 | 247 | 8.0 | 13.0 | 0.00 | 0.06 | 0.06 | 78 | 1022.9 |
| 20260505080800 | 59 | 243 | 5.0 | 7.0 | 0.00 | 0.06 | 0.06 | 78 | 1023.0 |
| 20260505080256 | 58 | 240 | 4.0 | 5.0 | 0.00 | 0.06 | 0.06 | 79 | 1022.9 |
| 20260505075752 | 58 | 263 | 3.0 | 3.0 | 0.00 | 0.06 | 0.06 | 79 | 1022.8 |
| 20260505075250 | 58 | 293 | 5.0 | 6.0 | 0.00 | 0.06 | 0.06 | 80 | 1022.7 |
| 20260505074747 | 58 | 275 | 3.0 | 3.0 | 0.00 | 0.06 | 0.06 | 80 | 1022.8 |
| 20260505074244 | 58 | 278 | 3.0 | 5.0 | 0.00 | 0.06 | 0.06 | 81 | 1022.8 |
| 20260505073741 | 57 | 244 | 4.0 | 6.0 | 0.00 | 0.06 | 0.06 | 83 | 1022.9 |
| 20260505073239 | 57 | 226 | 3.0 | 3.0 | 0.00 | 0.06 | 0.06 | 85 | 1023.1 |
| 20260505072736 | 56 | 243 | 3.0 | 3.0 | 0.00 | 0.06 | 0.06 | 86 | 1022.8 |
| 20260505072232 | 56 | 331 | 2.0 | 2.0 | 0.00 | 0.06 | 0.06 | 87 | 1022.9 |
| 20260505071727 | 56 | 139 | 1.0 | 1.0 | 0.00 | 0.06 | 0.06 | 86 | 1022.9 |
| 20260505071225 | 56 | 176 | 2.0 | 2.0 | 0.00 | 0.06 | 0.06 | 87 | 1022.9 |
| 20260505070722 | 56 | 12 | 1.0 | 1.0 | 0.07 | 0.06 | 0.06 | 88 | 1023.1 |
| 20260505070218 | 56 | 297 | 3.0 | 3.0 | 0.07 | 0.06 | 0.06 | 88 | 1023.1 |
| 20260505065714 | 56 | 313 | 1.0 | 2.0 | 0.07 | 0.06 | 0.06 | 88 | 1023.0 |
| 20260505065211 | 57 | 278 | 3.0 | 5.0 | 0.00 | 0.05 | 0.05 | 87 | 1023.4 |
| 20260505064708 | 57 | 242 | 3.0 | 3.0 | 0.00 | 0.05 | 0.05 | 86 | 1023.5 |
| 20260505064206 | 57 | 241 | 3.0 | 3.0 | 0.00 | 0.05 | 0.05 | 86 | 1023.5 |
| 20260505063704 | 57 | 227 | 3.0 | 3.0 | 0.00 | 0.05 | 0.05 | 86 | 1023.4 |
| 20260505063159 | 57 | 284 | 3.0 | 3.0 | 0.00 | 0.05 | 0.05 | 85 | 1023.7 |
| 20260505062655 | 57 | 257 | 3.0 | 3.0 | 0.00 | 0.05 | 0.05 | 84 | 1023.7 |
| 20260505062154 | 57 | 228 | 3.0 | 3.0 | 0.00 | 0.05 | 0.05 | 83 | 1023.5 |
| 20260505061650 | 57 | 239 | 4.0 | 5.0 | 0.00 | 0.05 | 0.05 | 85 | 1023.4 |
| 20260505061148 | 56 | 207 | 2.0 | 2.0 | 0.00 | 0.05 | 0.05 | 85 | 1023.2 |
| 20260505060645 | 56 | 244 | 1.0 | 3.0 | 0.00 | 0.05 | 0.05 | 85 | 1023.3 |
| 20260505060142 | 55 | 242 | 2.0 | 2.0 | 0.00 | 0.05 | 0.05 | 88 | 1023.3 |
| 20260505055637 | 55 | 228 | 2.0 | 3.0 | 0.00 | 0.05 | 0.05 | 89 | 1023.4 |
| 20260505055134 | 54 | 200 | 1.0 | 2.0 | 0.00 | 0.05 | 0.05 | 91 | 1023.3 |
| 20260505054632 | 54 | 288 | 2.0 | 2.0 | 0.00 | 0.05 | 0.05 | 94 | 1023.4 |
| 20260505054130 | 53 | 254 | 2.0 | 2.0 | 0.00 | 0.05 | 0.05 | 95 | 1023.5 |
| 20260505053627 | 53 | 337 | 0.0 | 0.0 | 0.00 | 0.05 | 0.05 | 96 | 1023.4 |
| 20260505053123 | 53 | 341 | 1.0 | 2.0 | 0.00 | 0.05 | 0.05 | 97 | 1023.5 |
| 20260505052620 | 53 | 167 | 1.0 | 1.0 | 0.00 | 0.05 | 0.05 | 97 | 1023.5 |
| 20260505052118 | 53 | 205 | 1.0 | 2.0 | 0.00 | 0.05 | 0.05 | 97 | 1023.7 |
| 20260505051614 | 53 | 83 | 0.0 | 1.0 | 0.00 | 0.05 | 0.05 | 97 | 1023.7 |
| 20260505051113 | 53 | 179 | 2.0 | 2.0 | 0.00 | 0.05 | 0.05 | 98 | 1023.6 |
| 20260505050610 | 53 | 89 | 0.0 | 1.0 | 0.00 | 0.05 | 0.05 | 98 | 1023.8 |
| 20260505050108 | 53 | 95 | 0.0 | 0.0 | 0.00 | 0.05 | 0.05 | 98 | 1023.6 |
| 20260505041538 | 56 | 227 | 4.0 | 5.0 | 0.19 | 0.04 | 0.04 | 91 | 1024.6 |
| 20260505041035 | 57 | 281 | 9.0 | 13.0 | 0.19 | 0.03 | 0.03 | 87 | 1024.8 |
| 20260505040532 | 59 | 217 | 5.0 | 6.0 | 0.07 | 0.01 | 0.01 | 83 | 1025.1 |
| 20260505040030 | 62 | 279 | 4.0 | 6.0 | 0.00 | 0.00 | 0.00 | 69 | 1024.8 |
| 20260505035525 | 63 | 253 | 5.0 | 7.0 | 0.00 | 0.00 | 0.00 | 63 | 1024.3 |
| 20260505035022 | 63 | 255 | 5.0 | 7.0 | 0.00 | 0.00 | 0.00 | 59 | 1024.0 |
| 20260505034519 | 64 | 237 | 4.0 | 5.0 | 0.00 | 0.00 | 0.00 | 57 | 1024.0 |
| 20260505034016 | 63 | 263 | 5.0 | 7.0 | 0.00 | 0.00 | 0.00 | 57 | 1024.0 |